Home > Weather > Råholt > Past weeks

Flag for Norway Past Weather in Råholt, Norway — Yesterday and Last 2 Weeks

Now
70 °F

Passing clouds.


Feels Like: 70 °F
Forecast: 57 / 73 °F
Wind: 3 mph from South

Location: Oslo Gardermoen Airport

Current Time: Jul 24, 2016 at 10:54:00 AM

Latest Report: Jul 24, 2016 at 10:20 AM


Visibility: N/A

Pressure: 30.12 "Hg

Humidity: 69%

Dew Point: 59 °F

Location of RåholtLocation

Past Weather in Råholt — Graph

°F

Råholt Temperature Yesterday

Maximum temperature yesterday: 73 °F (at 3:50 PM)
Minimum temperature yesterday: 57 °F (at 4:50 AM)
Average temperature yesterday: 67 °F

High & Low Weather Summary for the Past Weeks

 TemperatureHumidityPressure
High79 °F (Jul 21, 4:50 PM)100% (Jul 13, 1:20 AM)30.12 "Hg (Jul 13, 1:20 AM)
Low46 °F (Jul 19, 4:20 AM)35% (Jul 16, 5:50 PM)29.42 "Hg (Jul 11, 12:20 PM)
Average63 °F69%29.84 "Hg
* Reported Jul 9 9:20 AM — Jul 24 9:20 AM, Råholt, Weather by CustomWeather, © 2016

Note: Actual official high and low records may vary slightly from our data, if they occured in-between our weather recording intervals... More about our weather records

Advertising

Råholt Weather History for the Previous 24 Hours

Scroll right to see more
 ConditionsComfort  
Time TempWeatherWind HumidityBarometerVisibility
9:20 AM
Sun, Jul 24
68 °FPassing clouds.3 mph69%30.12 "HgN/A
8:50 AM66 °FSunny.2 mph73%30.12 "Hg10 mi
8:20 AM64 °FSunny.No wind78%30.12 "Hg10 mi
7:50 AM61 °FSunny.No wind88%30.12 "Hg10 mi
7:20 AM59 °FSunny.No wind88%30.12 "Hg10 mi
6:50 AM57 °FSunny.No wind94%30.12 "Hg10 mi
6:20 AM57 °FSunny.No wind94%30.12 "Hg10 mi
5:50 AM57 °FSunny.No wind88%30.12 "Hg10 mi
5:20 AM57 °FClear.1 mph88%30.12 "Hg10 mi
4:50 AM57 °FClear.No wind88%30.12 "Hg10 mi
4:20 AM57 °FClear.1 mph88%30.12 "Hg10 mi
3:50 AM57 °FClear.No wind94%30.12 "Hg10 mi
3:20 AM59 °FClear.2 mph88%30.12 "Hg10 mi
2:50 AM61 °FClear.No wind88%30.12 "Hg10 mi
2:20 AM61 °FClear.No wind88%30.12 "Hg10 mi
1:50 AM61 °FClear.No wind88%30.12 "Hg10 mi
1:20 AM61 °FClear.No wind83%30.12 "Hg10 mi
12:50 AM61 °FClear.2 mph83%30.12 "Hg10 mi
12:20 AM64 °FClear.No wind73%30.12 "Hg10 mi
11:50 PM
Sat, Jul 23
64 °FClear.No wind68%30.12 "Hg10 mi
11:20 PM66 °FClear.No wind68%30.12 "Hg10 mi
10:50 PM66 °FSunny.2 mph68%30.12 "Hg10 mi
10:20 PM68 °FSunny.3 mph64%30.12 "Hg10 mi
9:50 PM68 °FSunny.2 mph64%30.12 "Hg10 mi
9:20 PM68 °FSunny.6 mph64%30.09 "Hg10 mi
8:50 PM70 °FSunny.6 mph64%30.09 "Hg10 mi
8:20 PM72 °FSunny.3 mph65%30.09 "Hg10 mi
7:50 PM72 °FSunny.5 mph65%30.09 "Hg10 mi
7:20 PM70 °FPassing clouds.5 mph64%30.09 "HgN/A
6:50 PM72 °FPassing clouds.5 mph61%30.12 "HgN/A
6:20 PM72 °FPassing clouds.6 mph61%30.12 "HgN/A
5:50 PM72 °FPassing clouds.5 mph61%30.12 "HgN/A
5:20 PM72 °FPartly sunny.6 mph61%30.12 "HgN/A
4:50 PM73 °FScattered showers. Broken clouds.6 mph61%30.12 "HgN/A
4:20 PM72 °FScattered showers. Broken clouds.6 mph61%30.12 "HgN/A
3:50 PM73 °FScattered showers. Broken clouds.5 mph57%30.12 "HgN/A
3:20 PM72 °FDrizzle. Broken clouds.6 mph65%30.12 "HgN/A
2:50 PM72 °FSprinkles. Broken clouds.7 mph65%30.12 "HgN/A
2:20 PM72 °FBroken clouds.7 mph65%30.12 "HgN/A
1:50 PM72 °FSunny.6 mph65%30.12 "Hg10 mi
1:20 PM72 °FPassing clouds.3 mph65%30.12 "HgN/A
12:50 PM72 °FSunny.2 mph65%30.12 "Hg10 mi
12:20 PM70 °FPassing clouds.5 mph69%30.12 "HgN/A
11:50 AM70 °FPassing clouds.7 mph64%30.12 "HgN/A
11:20 AM70 °FPassing clouds.3 mph64%30.12 "HgN/A
10:50 AM70 °FPassing clouds.3 mph64%30.12 "HgN/A
10:20 AM68 °FPassing clouds.5 mph64%30.12 "HgN/A
Weather by CustomWeather, © 2016

See weather overviewHow to use our weather pages